When you browse on this site, cookies collect data to enhance your experience and personalize the content and advertising you see.
Visit our Privacy Policy to learn more. By continuing to use the site, you agree to this use of cookies and data.
  • In Hungary
  • List of Countries
  • For 7 days
  • Water Temperature
  • Satellite Maps
  • Weather Map
  • News
  • Weather Widgets
  • user-avatar
    Login

    Hourly Weather Barcikowo

    Today, 24 January, Thursday

    Time Temperature Precipitation Wind Pressure Humidity
    00:00 -9°C° 0 mm 4 mps 748 mmHg 70%
    01:00 -8°C° 0 mm 3 mps 749 mmHg 70%
    02:00 -8°C° 0 mm 3 mps 749 mmHg 71%
    03:00 -8°C° 0 mm 3 mps 749 mmHg 71%
    04:00 -9°C° 0 mm 3 mps 749 mmHg 72%
    05:00 -9°C° 0 mm 3 mps 749 mmHg 73%
    06:00 -10°C° 0 mm 4 mps 750 mmHg 75%
    07:00 -9°C° 0 mm 3 mps 750 mmHg 75%
    08:00 -10°C° 0 mm 4 mps 750 mmHg 74%
    09:00 -9°C° 0 mm 4 mps 751 mmHg 72%
    10:00 -9°C° 0 mm 4 mps 751 mmHg 71%
    11:00 -9°C° 0 mm 4 mps 751 mmHg 68%
    12:00 -8°C° 0 mm 4 mps 751 mmHg 65%
    13:00 -8°C° 0 mm 5 mps 751 mmHg 62%
    14:00 -8°C° 0 mm 5 mps 751 mmHg 63%
    15:00 -8°C° 0 mm 5 mps 751 mmHg 64%
    16:00 -8°C° 0 mm 5 mps 751 mmHg 64%
    17:00 -10°C° 0 mm 5 mps 751 mmHg 67%
    18:00 -10°C° 0 mm 5 mps 751 mmHg 69%
    19:00 -10°C° 0 mm 5 mps 751 mmHg 71%
    20:00 -10°C° 0 mm 5 mps 751 mmHg 72%
    21:00 -10°C° 0 mm 5 mps 751 mmHg 74%
    22:00 -10°C° 0 mm 5 mps 752 mmHg 75%
    23:00 -10°C° 0 mm 5 mps 751 mmHg 74%

    Tomorrow, 25 January, Friday

    Time Temperature Precipitation Wind Pressure Humidity
    00:00 -10°C° 0 mm 5 mps 751 mmHg 74%
    01:00 -11°C° 0 mm 5 mps 751 mmHg 74%
    02:00 -9°C° 0.1 mm 4 mps 751 mmHg 75%
    03:00 -9°C° 0.1 mm 4 mps 751 mmHg 76%
    04:00 -9°C° 0.1 mm 4 mps 751 mmHg 77%
    05:00 -9°C° 0.2 mm 4 mps 751 mmHg 80%
    06:00 -9°C° 0.2 mm 4 mps 750 mmHg 83%
    07:00 -10°C° 0.2 mm 4 mps 750 mmHg 85%
    08:00 -9°C° 0.2 mm 4 mps 750 mmHg 84%
    09:00 -9°C° 0.2 mm 4 mps 750 mmHg 84%
    10:00 -9°C° 0.2 mm 4 mps 751 mmHg 83%
    11:00 -8°C° 0.1 mm 3 mps 750 mmHg 81%
    12:00 -7°C° 0.1 mm 3 mps 750 mmHg 79%
    13:00 -6°C° 0.1 mm 2 mps 750 mmHg 78%
    14:00 -4°C° 0.1 mm 1 mps 750 mmHg 78%
    15:00 -4°C° 0.1 mm 1 mps 750 mmHg 79%
    16:00 -5°C° 0.1 mm 0 mps 750 mmHg 79%
    17:00 -4°C° 0 mm 1 mps 750 mmHg 81%
    18:00 -4°C° 0 mm 1 mps 750 mmHg 82%
    19:00 -4°C° 0 mm 1 mps 750 mmHg 84%
    20:00 -6°C° 0 mm 2 mps 749 mmHg 84%
    21:00 -6°C° 0 mm 2 mps 749 mmHg 85%
    22:00 -7°C° 0 mm 3 mps 749 mmHg 86%
    23:00 -7°C° 0 mm 3 mps 748 mmHg 85%

    Day after tomorrow, 26 January, Saturday

    Time Temperature Precipitation Wind Pressure Humidity
    00:00 -8°C° 0 mm 3 mps 748 mmHg 84%
    01:00 -8°C° 0 mm 3 mps 747 mmHg 84%
    02:00 -8°C° 0 mm 3 mps 747 mmHg 83%
    03:00 -8°C° 0 mm 3 mps 746 mmHg 83%
    04:00 -8°C° 0 mm 3 mps 745 mmHg 82%
    05:00 -8°C° 0 mm 3 mps 745 mmHg 82%
    06:00 -7°C° 0 mm 3 mps 744 mmHg 82%
    07:00 -7°C° 0 mm 3 mps 743 mmHg 82%
    08:00 -8°C° 0.2 mm 4 mps 742 mmHg 84%
    09:00 -7°C° 0.2 mm 4 mps 742 mmHg 87%
    10:00 -7°C° 0.2 mm 4 mps 741 mmHg 89%
    11:00 -5°C° 0.3 mm 4 mps 740 mmHg 89%
    12:00 -5°C° 0.3 mm 4 mps 739 mmHg 90%
    13:00 -4°C° 0.3 mm 4 mps 739 mmHg 90%
    14:00 -4°C° 0.3 mm 3 mps 739 mmHg 92%
    15:00 -3°C° 0.3 mm 2 mps 738 mmHg 94%
    16:00 -1°C° 0.3 mm 1 mps 738 mmHg 96%
    17:00 -3°C° 0 mm 2 mps 739 mmHg 95%
    18:00 -4°C° 0 mm 2 mps 739 mmHg 95%
    19:00 -5°C° 0 mm 3 mps 739 mmHg 94%
    20:00 -5°C° 0 mm 2 mps 740 mmHg 95%
    21:00 -5°C° 0 mm 2 mps 740 mmHg 95%
    22:00 -6°C° 0 mm 2 mps 741 mmHg 96%
    23:00 -4°C° 0 mm 1 mps 741 mmHg 96%

    27 January, Sunday

    Time Temperature Precipitation Wind Pressure Humidity
    00:00 -6°C° 0 mm 1 mps 741 mmHg 96%
    01:00 -6°C° 0 mm 1 mps 741 mmHg 95%
    02:00 -6°C° 0 mm 1 mps 741 mmHg 95%
    03:00 -6°C° 0 mm 1 mps 741 mmHg 95%
    04:00 -6°C° 0 mm 1 mps 741 mmHg 94%
    05:00 -7°C° 0 mm 2 mps 741 mmHg 94%
    06:00 -7°C° 0 mm 2 mps 741 mmHg 93%
    07:00 -7°C° 0 mm 3 mps 740 mmHg 92%
    08:00 -7°C° 0 mm 3 mps 740 mmHg 91%
    09:00 -8°C° 0 mm 4 mps 740 mmHg 90%
    10:00 -7°C° 0 mm 5 mps 739 mmHg 89%
    11:00 -7°C° 0.2 mm 5 mps 739 mmHg 89%
    12:00 -6°C° 0.2 mm 5 mps 738 mmHg 90%
    13:00 -6°C° 0.2 mm 5 mps 738 mmHg 90%
    14:00 -5°C° 0.5 mm 5 mps 738 mmHg 92%
    15:00 -5°C° 0.5 mm 5 mps 737 mmHg 93%
    16:00 -5°C° 0.5 mm 5 mps 737 mmHg 94%
    17:00 -5°C° 0.2 mm 5 mps 737 mmHg 95%
    18:00 -3°C° 0.2 mm 4 mps 737 mmHg 95%
    19:00 -3°C° 0.2 mm 4 mps 737 mmHg 96%
    20:00 -3°C° 0.2 mm 4 mps 736 mmHg 96%
    21:00 -3°C° 0.2 mm 4 mps 736 mmHg 96%
    22:00 -2°C° 0.2 mm 4 mps 736 mmHg 96%
    23:00 -1°C° 0.2 mm 3 mps 736 mmHg 96%

    28 January, Monday

    Time Temperature Precipitation Wind Pressure Humidity
    00:00 -1°C° 0.2 mm 3 mps 736 mmHg 96%
    01:00 0°C° 0.2 mm 3 mps 736 mmHg 96%
    02:00 -1°C° 0.2 mm 3 mps 735 mmHg 95%
    03:00 -1°C° 0.2 mm 3 mps 735 mmHg 95%
    04:00 -1°C° 0.2 mm 3 mps 735 mmHg 95%
    05:00 -1°C° 0.3 mm 3 mps 735 mmHg 95%
    06:00 -1°C° 0.3 mm 3 mps 735 mmHg 95%
    07:00 -1°C° 0.3 mm 3 mps 735 mmHg 95%
    08:00 -1°C° 0.3 mm 3 mps 735 mmHg 96%
    09:00 -1°C° 0.3 mm 3 mps 735 mmHg 96%
    10:00 +1°C° 0.3 mm 2 mps 735 mmHg 97%
    11:00 +1°C° 0.3 mm 2 mps 735 mmHg 98%
    12:00 +1°C° 0.3 mm 2 mps 735 mmHg 99%
    13:00 +1°C° 0.3 mm 2 mps 735 mmHg 99%
    14:00 +1°C° 0.1 mm 2 mps 735 mmHg 99%
    15:00 +1°C° 0.1 mm 2 mps 735 mmHg 98%
    16:00 +1°C° 0.1 mm 2 mps 735 mmHg 98%
    17:00 -1°C° 0 mm 2 mps 735 mmHg 97%
    18:00 -1°C° 0 mm 2 mps 735 mmHg 96%
    19:00 -1°C° 0 mm 2 mps 735 mmHg 95%
    20:00 -2°C° 0 mm 2 mps 735 mmHg 95%
    21:00 -2°C° 0 mm 2 mps 735 mmHg 95%
    22:00 -2°C° 0 mm 2 mps 735 mmHg 94%
    23:00 -2°C° 0.1 mm 2 mps 735 mmHg 94%

    29 January, Tuesday

    Time Temperature Precipitation Wind Pressure Humidity
    00:00 -2°C° 0.1 mm 2 mps 735 mmHg 94%
    01:00 -1°C° 0.1 mm 2 mps 735 mmHg 94%
    02:00 -1°C° 0 mm 3 mps 735 mmHg 94%
    03:00 -2°C° 0 mm 4 mps 736 mmHg 94%
    04:00 -2°C° 0 mm 5 mps 736 mmHg 94%
    05:00 -3°C° 0.1 mm 6 mps 737 mmHg 92%
    06:00 -4°C° 0.1 mm 8 mps 737 mmHg 89%
    07:00 -4°C° 0.1 mm 9 mps 738 mmHg 87%
    08:00 -4°C° 0.1 mm 9 mps 739 mmHg 86%
    09:00 -5°C° 0.1 mm 9 mps 740 mmHg 84%
    10:00 -5°C° 0.1 mm 9 mps 741 mmHg 83%
    11:00 -5°C° 0.1 mm 9 mps 742 mmHg 83%
    12:00 -5°C° 0.1 mm 8 mps 742 mmHg 82%
    13:00 -5°C° 0.1 mm 8 mps 743 mmHg 82%
    14:00 -6°C° 0 mm 7 mps 744 mmHg 82%
    15:00 -5°C° 0 mm 5 mps 744 mmHg 83%
    16:00 -5°C° 0 mm 4 mps 745 mmHg 83%
    17:00 -7°C° 0 mm 4 mps 745 mmHg 85%
    18:00 -6°C° 0 mm 3 mps 746 mmHg 87%
    19:00 -7°C° 0 mm 3 mps 746 mmHg 89%
    20:00 -6°C° 0.1 mm 3 mps 746 mmHg 90%
    21:00 -6°C° 0.1 mm 3 mps 747 mmHg 91%
    22:00 -5°C° 0.1 mm 3 mps 747 mmHg 92%
    23:00 -5°C° 0 mm 3 mps 747 mmHg 91%
    Show more